Huntington, WV

11:40 AM EST on December 14, 2019 (GMT -0500)
Tri-State / Ferguson

Weather History for KHTS - October, 2019

Change the Weather History Date:

Sunday, October 27, 2019

  Actual Average Record
Temperature  
Mean Temperature 59 °F 53 °F  
Max Temperature 70 °F 65 °F 86 °F (1940)
Min Temperature 48 °F 42 °F 16 °F (1962)
Degree Days  
Heating Degree Days 6 12  
Month to date heating degree days 158 230  
Since 1 July heating degree days 158 288  
Cooling Degree Days 0 0  
Month to date cooling degree days 66 16  
Year to date cooling degree days 1511 1127  
Growing Degree Days 10 (Base 50)    
Moisture  
Dew Point 55 °F    
Average Humidity 78    
Maximum Humidity 100    
Minimum Humidity 55    
Precipitation  
Precipitation 0.57 in 0.09 in 1.34 in (2006)
Month to date precipitation 4.69 2.41  
Year to date precipitation 39.16 35.44  
Snow  
Snow 0.00 in 0.00 in T in (1976)
Month to date snowfall 0.0 0.0  
Since 1 September snowfall 0.0 0.0  
Snow Depth 0.00 in    
Sea Level Pressure  
Sea Level Pressure 29.87 in    
Wind  
Wind Speed 7 mph (WSW)    
Max Wind Speed 17 mph    
Max Gust Speed 27 mph    
Visibility 9 miles    
Events Rain    
T = Trace of Precipitation, MM = Missing Value Source: NWS Daily Summary

Daily Weather History Graph

Daily Weather History Graph

Search for Another Location

Airport or City:

Astronomy

Oct. 27, 2019 Rise Set
Actual Time 7:51 AM EDT 6:36 PM EDT
Civil Twilight 7:23 AM EDT 7:03 PM EDT
Nautical Twilight 6:52 AM EDT 7:34 PM EDT
Astronomical Twilight 6:22 AM EDT 8:05 PM EDT
Moon 6:59 AM EDT (10/27) 6:44 PM EDT (10/27)
Length of Visible Light 11h 39m
Length of Day
10h 45m
Waning Crescent, 0% of the Moon is Illuminated
Oct 27
Waning Crescent
Oct 27
New
Nov 4
First Quarter
Nov 12
Full
Nov 19
Last Quarter

Hourly Weather History & Observations

Time (EDT) Temp. Dew Point Humidity Pressure Visibility Wind Dir Wind Speed Gust Speed Precip Events Conditions
12:51 AM 70.0 °F 59.0 °F 68% 29.60 in 10.0 mi SSE 6.9 mph - N/A   Mostly Cloudy
1:15 AM 68.0 °F 61.0 °F 78% 29.66 in 1.8 mi SSW 9.2 mph - 0.05 in Rain Heavy Rain
1:36 AM 64.9 °F 63.0 °F 93% 29.67 in 3.0 mi South 9.2 mph - 0.31 in Rain Rain
1:51 AM 64.9 °F 63.0 °F 93% 29.66 in 10.0 mi South 6.9 mph - 0.33 in Rain Light Rain
2:18 AM 64.9 °F 63.0 °F 93% 29.70 in 3.0 mi WNW 9.2 mph - 0.05 in Rain Rain
2:21 AM 64.9 °F 63.0 °F 93% 29.71 in 2.0 mi West 6.9 mph - 0.05 in Rain Heavy Rain
2:23 AM 64.9 °F 63.0 °F 93% 29.71 in 1.8 mi West 8.1 mph - 0.06 in Rain Heavy Rain
2:38 AM 64.9 °F 62.1 °F 90% 29.72 in 3.0 mi West 13.8 mph 27.6 mph 0.20 in Rain Rain
2:51 AM 64.9 °F 62.1 °F 90% 29.70 in 5.0 mi West 12.7 mph 19.6 mph 0.24 in Rain Light Rain
3:16 AM 64.9 °F 61.0 °F 87% 29.72 in 10.0 mi WSW 9.2 mph 18.4 mph 0.00 in Rain Light Rain
3:27 AM 64.0 °F 61.0 °F 90% 29.73 in 10.0 mi WSW 9.2 mph 17.3 mph 0.00 in   Overcast
3:51 AM 64.9 °F 60.1 °F 84% 29.73 in 10.0 mi WSW 11.5 mph 19.6 mph 0.00 in   Overcast
4:51 AM 63.0 °F 57.0 °F 81% 29.74 in 10.0 mi SW 13.8 mph 25.3 mph N/A   Partly Cloudy
5:44 AM 62.1 °F 55.9 °F 80% 29.80 in 10.0 mi WSW 12.7 mph 18.4 mph N/A   Mostly Cloudy
5:51 AM 62.1 °F 55.9 °F 80% 29.79 in 10.0 mi WSW 15.0 mph 20.7 mph N/A   Overcast
6:51 AM 62.1 °F 55.0 °F 78% 29.82 in 10.0 mi SW 8.1 mph - N/A   Overcast
7:51 AM 61.0 °F 55.0 °F 81% 29.86 in 10.0 mi WSW 9.2 mph - N/A   Overcast
8:51 AM 60.1 °F 53.1 °F 78% 29.90 in 10.0 mi West 11.5 mph 19.6 mph N/A   Overcast
9:51 AM 61.0 °F 53.1 °F 75% 29.93 in 10.0 mi West 8.1 mph 20.7 mph N/A   Overcast
10:22 AM 61.0 °F 53.1 °F 75% 29.96 in 10.0 mi West 9.2 mph - N/A   Overcast
10:51 AM 62.1 °F 52.0 °F 70% 29.95 in 10.0 mi WSW 11.5 mph - N/A   Overcast
10:58 AM 62.1 °F 51.1 °F 67% 29.96 in 10.0 mi WSW 11.5 mph 19.6 mph N/A   Scattered Clouds
11:29 AM 61.0 °F 51.1 °F 70% 29.98 in 10.0 mi West 9.2 mph - N/A   Overcast
11:51 AM 61.0 °F 51.1 °F 70% 29.97 in 10.0 mi WSW 10.4 mph - N/A   Overcast
12:51 PM 64.9 °F 52.0 °F 63% 29.98 in 10.0 mi West 5.8 mph - N/A   Mostly Cloudy
1:51 PM 64.9 °F 51.1 °F 61% 29.97 in 10.0 mi West 8.1 mph - N/A   Scattered Clouds
2:51 PM 66.9 °F 50.0 °F 54% 29.97 in 10.0 mi WSW 9.2 mph - N/A   Scattered Clouds
3:51 PM 68.0 °F 51.1 °F 55% 29.98 in 10.0 mi NW 4.6 mph - N/A   Clear
4:51 PM 66.9 °F 51.1 °F 57% 30.00 in 10.0 mi West 5.8 mph - N/A   Clear
5:51 PM 64.9 °F 51.1 °F 61% 30.00 in 10.0 mi North 5.8 mph - N/A   Clear
6:51 PM 60.1 °F 50.0 °F 69% 30.02 in 10.0 mi NNW 5.8 mph - N/A   Clear
7:51 PM 57.9 °F 50.0 °F 75% 30.04 in 10.0 mi North 4.6 mph - N/A   Clear
8:51 PM 55.9 °F 48.9 °F 77% 30.05 in 10.0 mi Calm Calm - N/A   Clear
9:51 PM 53.1 °F 48.9 °F 86% 30.06 in 10.0 mi Calm Calm - N/A   Clear
10:51 PM 51.1 °F 48.9 °F 92% 30.07 in 10.0 mi East 3.5 mph - N/A   Clear
11:51 PM 48.9 °F 48.0 °F 97% 30.07 in 8.0 mi ESE 3.5 mph - N/A   Clear